Simultaneous Nadir Overpasses (SNOs) Predictions

Prediction of SNOs between LANDSAT-8 and METOP-B Satellite Orbit:

Table of predicted SNOs for the next 14.0 days since TLE Epoch: 7/9/2016
Index Date (LANDSAT-8) Time (LANDSAT-8) Lat,Lon (LANDSAT-8) SZA (LANDSAT-8 ) Date (METOP-B) Time (METOP-B) Lat,Lon (METOP-B) SZA (METOP-B ) Distance(km) Time Diff (sec)
1 07/11/2016 02:16:11 81.06,-174.96 60.96 07/11/2016 02:15:19 81.06,-175.14 60.91 3.18 52
2 07/11/2016 03:05:36 -81.10, -6.66 118.94 07/11/2016 03:05:57 -81.09, -6.82 118.96 2.88 21
3 07/13/2016 21:50:27 81.07,-108.40 61.37 07/13/2016 21:49:43 81.08,-108.29 61.37 2.03 44
4 07/13/2016 22:39:53 -81.09, 59.56 118.58 07/13/2016 22:40:22 -81.10, 59.70 118.55 2.56 29
5 07/16/2016 17:24:42 81.07, -41.88 61.82 07/16/2016 17:24:07 81.08, -41.84 61.82 0.92 35
6 07/16/2016 18:14:08 -81.10, 126.10 118.12 07/16/2016 18:14:46 -81.10, 126.20 118.09 1.71 38
7 07/19/2016 12:58:58 81.08, 24.59 62.32 07/19/2016 12:58:32 81.08, 24.60 62.31 0.28 26
8 07/19/2016 13:48:24 -81.10,-167.39 117.62 07/19/2016 13:49:11 -81.10,-167.32 117.59 1.31 47
9 07/22/2016 08:33:14 81.08, 91.03 62.86 07/22/2016 08:32:57 81.08, 91.03 62.86 0.31 17




NCC Satellite Simultaneous Nadir Overpasses (SNOs) Prediction Service
